Theta_e
354 351 356 351 350 346 345 345 348 349 350 348 347 345 344 342 339 340 336 335 334 332
352 354 352 353 357 349 349 349 350 349 347 346 344 343 342 340 338 338 337 335 334 333
353 355 355 354 351 351 348 347 347 346 345 341 342 341 340 339 338 336 336 334 333 332
353 351 350 350 348 348 348 345 343 343 341 337 337 338 338 337 335 335 333 333 332 332
349 348 347 346 347 346 345 343 341 341 337 336 337 338 336 335 335 332 331 332 332 329
345 344 345 344 344 343 343 341 339 339 334 335 335 334 336 335 332 334 332 332 330 330
342 343 343 342 342 342 340 339 339 338 335 333 335 334 334 333 333 333 330 330 328 326
342 342 341 339 339 339 340 338 336 335 333 335 332 331 333 332 333 332 329 329 328 326
338 337 337 338 339 340 338 338 334 334 332 329 326 307 312 329 334 333 329 326 325 324
335 335 336 338 337 337 339 336 335 337 336 332 325 304 307 312 334 331 331 327 323 323
334 334 335 335 336 337 337 337 338 336 335 334 319 304 305 309 335 333 331 325 325 323
335 334 334 333 335 338 336 336 335 335 333 331 323 305 304 313 333 330 326 326 324 325
334 334 331 333 337 337 337 336 337 334 334 322 324 304 304 314 331 326 323 323 319 307
335 333 336 336 338 336 335 335 334 332 331 333 328 316 304 304 330 324 322 323 321 321
Wind_Speed
10 7 7 10 9 9 9 9 10 9 8 8 6 6 6 3 4 4 3 4 3 0
11 9 10 9 7 10 10 10 11 9 7 6 6 6 6 4 5 6 5 3 3 3
10 9 10 8 8 7 11 11 9 7 7 6 5 6 6 4 5 5 4 3 5 4
10 11 10 8 8 9 8 10 8 7 6 6 6 6 5 0 6 5 5 2 5 6
12 12 10 9 9 8 7 7 6 7 9 6 6 6 5 4 5 5 5 4 4 3
11 11 9 9 9 8 6 6 7 7 9 7 7 7 5 4 5 5 4 4 3 4
11 11 9 9 8 7 7 6 6 5 6 7 9 7 5 5 6 6 6 5 4 4
11 11 9 8 7 7 6 6 8 6 6 3 7 4 3 7 7 8 7 5 4 3
11 10 8 8 8 7 6 6 6 6 10 8 6 7 10 6 6 7 8 5 3 1
11 11 9 6 7 6 6 6 6 6 7 10 7 7 8 6 5 6 6 6 4 3
12 11 9 7 5 6 6 6 5 6 7 8 5 6 5 2 5 5 6 5 4 3
15 13 12 9 6 7 7 5 5 6 7 9 6 5 2 2 5 7 6 4 3 2
15 14 11 9 7 7 6 6 3 6 7 10 8 5 3 4 5 7 5 4 3 5
14 12 10 6 6 6 6 6 5 8 6 8 9 6 5 5 4 6 4 4 3 3
Wind_Direction
209 180 164 153 158 150 169 174 179 183 185 181 167 143 116 152 188 177 199 212 148 193
196 178 150 160 163 161 175 171 168 170 167 155 150 131 149 196 202 166 157 170 174 173
168 158 143 148 147 125 126 145 156 159 153 154 139 140 172 164 180 141 135 180 171 208
170 122 123 132 120 109 120 134 156 158 130 128 153 168 146 163 139 150 160 207 176 216
127 123 132 126 118 118 123 139 160 146 135 162 173 148 158 204 152 155 160 195 178 182
128 130 133 131 128 143 148 168 167 151 162 171 150 151 183 199 168 132 164 167 153 42
134 138 138 136 142 153 163 163 134 142 169 179 143 157 184 181 129 135 98 99 100 103
136 137 140 138 161 156 156 158 153 175 178 131 137 150 156 144 135 129 124 112 112 111
138 140 152 165 152 153 156 169 149 148 89 99 89 61 71 113 137 150 138 148 142 145
157 150 140 148 144 153 139 106 112 107 116 101 103 78 79 75 141 161 157 137 156 177
147 143 147 146 168 144 125 125 114 122 111 108 95 93 96 84 122 140 129 127 159 198
146 154 157 165 184 125 123 128 158 146 145 118 111 113 117 316 114 108 109 115 100 270
138 150 153 154 138 131 155 144 157 135 125 118 124 144 90 355 135 113 105 110 82 29
112 118 132 129 124 149 162 134 143 131 136 134 132 128 93 32 157 129 145 155 152 129